Location: Unspecified
(0.0000°N, 0.0000°E)
Time: 01:35:19
(UTC+00:00)

Transit 4A - Pass Details

Date: 16 December 2018
Orbit: 868 x 977 km, 66.8° (Epoch: 17 January)

Event Time Altitude Azimuth Distance (km) Brightness Sun altitude
Rises 02:03:24 0° 211° (SSW) 3,497 - -51.2°
Reaches altitude 10° 02:05:59 10° 216° (SW) 2,542 - -50.7°
Maximum altitude 02:11:37 48° 289° (WNW) 1,123 - -49.5°
Drops below altitude 10° 02:17:09 10° 3° (N) 2,500 - -48.4°
Sets 02:19:41 0° 9° (N) 3,434 - -47.9°
